Погода в Морге

Россия / Республика Мордовия     54°24′10″N   46°26′50″E
темп.,
°C
ветер,
м/с
пор.,
м/с
влажн.,
%
обл.,
%
осадки,
мм/ч
давл.,
гПа
погр.,
м
13 июня, вс
вс1300:00+15ююв2293100 0.0 101025
03:00+14ю22935 0.0 101032
06:00+16ю36901 0.0 1011202
09:00+20ююз467955 1.1 1010427
12:00+23ююз68728 4.4 10101378
15:00+22ююз610735 5.9 10111248
18:00+20ююз59835 1.1 1011432
21:00+17ююз3492100 2.4 101277
14 июня, пн
пн1400:00+16ю3695100 0.4 1012142
03:00+15ююз2395100 0.4 101348
06:00+18ю2391100 0.0 1015150
09:00+21ю348178 0.8 1015506
12:00+23ююз3573100 2.7 1016791
15:00+23юз346942 2.9 10161035
18:00+22юз2486100 0.4 1015165
21:00+18ююз119091 2.4 101611
15 июня, вт
вт1500:00+17юз1191100 0.7 101511
03:00+16в1192100 0.8 101511
06:00+18св129069 0.0 1014120
09:00+20вюв458588 1.7 1014378
12:00+21юв4582100 1.3 1014514
15:00+22в238376 5.6 1013458
18:00+22ююв368469 2.4 1012194
21:00+18вюв22855 2.8 101111
16 июня, ср
ср1600:00+17в119096 1.2 101111
03:00+16юв2290100 1.2 101011
06:00+18вюв2487100 0.0 1010144
09:00+23вюв357028 0.0 1009379
12:00+26юв346155 0.0 10081124
15:00+26юв2259100 0.0 10071118
18:00+26з117457 0.1 1007152
21:00+20з238487 0.3 100836
17 июня, чт
чт1700:00+18сз379694 3.3 1009191
03:00+16с61096100 3.7 1011401
06:00+16с5995100 0.0 1013556
09:00+16с6119399 0.1 1015656
12:00+21с786753 0.0 10161349
15:00+22с676814 0.0 10171687
18:00+19св49710 0.0 1019358
21:00+15ссв23780 0.0 102125